Date,TemperatureHighF,TemperatureAvgF,TemperatureLowF,DewpointHighF,DewpointAvgF,DewpointLowF,HumidityHigh,HumidityAvg,HumidityLow,PressureMaxIn,PressureMinIn,WindSpeedMaxMPH,WindSpeedAvgMPH,GustSpeedMaxMPH,PrecipitationSumIn
2013-2-1,53.6,42.5,36.0,47.7,41.6,35.6,99,96,80,30.35,30.23,9,3,9,0.00
2013-2-2,45.7,39.1,34.5,45.1,38.9,34.3,99,99,95,30.32,30.25,7,3,7,0.01
2013-2-3,50.0,44.1,37.8,45.9,42.8,37.6,99,95,76,30.34,30.23,11,4,11,0.01
2013-2-4,52.5,46.1,42.3,46.2,44.1,36.1,99,93,78,30.23,29.93,15,4,15,0.00
2013-2-5,89.8,47.8,43.9,76.5,43.1,2.8,99,84,13,30.08,29.93,120,4,120,36.56
2013-2-6,54.9,48.2,42.4,43.5,41.3,37.9,91,77,58,30.12,29.85,34,10,34,0.05
2013-2-7,50.4,42.3,36.7,41.5,38.8,36.5,99,88,63,30.12,29.95,24,5,24,0.07
2013-2-8,45.5,38.4,34.5,37.9,35.8,34.3,99,91,71,30.28,30.11,16,5,16,0.00
2013-2-9,45.7,40.6,35.6,42.4,39.0,35.2,99,94,79,30.30,30.25,8,3,8,0.07
2013-2-10,47.3,43.0,41.2,42.4,40.2,36.5,99,90,77,30.33,30.28,11,4,11,0.02
2013-2-11,48.6,44.1,40.6,44.4,40.4,37.4,99,87,69,30.40,30.30,10,4,10,0.00
2013-2-12,57.4,48.6,43.9,50.5,46.5,43.7,99,93,72,30.49,30.40,16,6,16,0.01
2013-2-13,51.6,49.2,46.9,48.2,46.7,45.1,99,91,82,30.50,30.43,15,6,15,0.00
2013-2-14,59.2,46.8,37.2,48.2,43.5,37.0,99,89,61,30.55,30.45,15,4,15,0.00
2013-2-15,55.4,41.9,36.1,47.1,40.7,11.3,99,96,33,30.45,30.21,10,4,10,0.00
2013-2-16,82.9,43.2,35.2,82.6,41.4,27.3,99,94,67,30.30,30.22,33,2,33,0.81
2013-2-17,54.5,42.2,35.1,42.8,36.7,31.6,99,82,50,30.29,30.07,11,3,11,0.00
2013-2-18,47.7,40.2,32.4,38.7,35.7,32.2,99,85,63,30.08,29.73,17,5,17,0.01
2013-2-19,50.9,43.0,38.1,42.1,39.6,37.2,99,88,63,29.99,29.64,16,6,16,0.12
2013-2-20,52.9,42.4,38.1,44.1,39.5,36.7,99,90,66,30.12,29.99,23,6,23,0.17
2013-2-21,45.3,42.3,38.1,41.5,39.7,37.4,99,91,80,30.23,30.11,23,11,23,0.17
2013-2-22,48.2,44.3,38.7,44.2,40.9,35.4,99,88,73,30.21,29.95,41,16,41,0.44
2013-2-23,48.9,40.6,36.9,40.8,37.9,36.1,99,90,65,30.43,30.12,26,11,26,0.12
2013-2-24,54.9,47.4,36.0,41.7,37.8,34.5,99,70,55,30.41,30.10,21,7,21,0.00
2013-2-25,50.2,43.4,37.9,41.9,38.7,34.9,97,84,58,30.40,30.07,43,13,43,0.17
2013-2-26,53.4,41.6,31.8,40.6,36.8,31.5,99,84,54,30.40,30.24,15,5,15,0.02
2013-2-27,52.3,46.4,40.8,46.8,42.1,36.1,97,85,74,30.31,30.21,18,6,18,0.07
2013-2-28,59.9,53.8,48.2,54.3,51.1,46.6,97,90,80,30.47,30.21,28,14,28,0.09